Regional Weather Roundup
Issued by NWS Kansas City/Pleasant Hill, MO

Home | Current Version | Previous Version | Graphics & Text | Print | Product List | Glossary Off
Versions: 1 2 3 4 5 6 7 8 9 10 11 12 13 14 15 16 17 18 19 20 21 22 23 24 25 26 27 28 29 30 31 32 33 34 35 36 37 38 39 40 41 42 43 44 45 46 47 48 49 50

000
ASUS43 KEAX 281011
RWREAX

WEATHER ROUNDUP FOR EASTERN KANSAS AND NORTHWEST MISSOURI
NATIONAL WEATHER SERVICE KANSAS CITY/PLEASANT HILL MO
400 AM CST SUN DEC 28 2014

KSZ040-057-103>105-MOZ028-029-037-043-281100-
...KANSAS CITY METROPOLITAN AREA...

CITY           SKY/WX    TMP DP  RH WIND       PRES   REMARKS
K.C. INTL      CLEAR     19  17  92 W6        30.22F WCI  11
K.C. DOWNTOWN  CLEAR     22  16  78 SW3       30.25F
LEES SUMMIT    PTCLDY    22  17  81 SW3       30.23F
OLATHE - IXD   PTCLDY    18  15  88 CALM      30.23F
OLATHE - OJC   FAIR      20  18  92 W5        30.22F WCI  13
LAWRENCE       CLEAR     14  12  92 NW3       30.25F

$$

MOZ001>008-011>017-020>025-030>033-038>040-044>046-053-054-281100-
...NORTHERN AND CENTRAL MISSOURI...

CITY           SKY/WX    TMP DP  RH WIND       PRES   REMARKS
ST. JOSEPH     CLEAR     14  13  95 CALM      30.24F
MOSBY          MOSUNNY   19  19 100 CALM      30.24S
WARRENSBURG    PTCLDY    21  19  93 CALM      30.24F
WHITEMAN AFB   PTCLDY    21  18  86 SW2       30.25S
CLINTON        PTCLDY    23  21  93 CALM      30.25F
SEDALIA        CLEAR     23  20  88 W3        30.24F
WARSAW         NOT AVBL
MARSHALL       PTCLDY    25  21  86 CALM      30.26F
CHILLICOTHE      N/A     21  17  84 CALM      30.23F
MOBERLY        CLEAR     25  19  80 W3        30.23F
KIRKSVILLE     CLEAR     20  19  96 S3        30.21F

$$

MOZ041-047>049-056>058-063>065-088>090-097-281100-
...EASTERN AND SOUTHERN MISSOURI...

CITY           SKY/WX    TMP DP  RH WIND       PRES   REMARKS
ST. LOUIS INTL CLOUDY    33  25  72 W7        30.22S WCI  27
SPIRIT OF STL  CLOUDY    31  25  78 NW9       30.22S WCI  23
COLUMBIA       CLOUDY    27  22  81 NW7       30.22F WCI  19
JEFFERSON CITY CLOUDY    29  22  75 W6        30.25F WCI  23
MEXICO         CLOUDY    30  27  86 N6        30.23S WCI  24
HANNIBAL       CLOUDY    30  21  69 W6        30.23S WCI  24
ROLLA          CLOUDY    27  23  85 N8        30.19F WCI  19
LEBANON        CLOUDY    27  21  80 CALM      30.21F
OSAGE BEACH    CLOUDY    27  19  74 NW5       30.23F WCI  21
SPRINGFIELD    CLOUDY    26  23  88 NW5       30.22F WCI  20
BRANSON        CLOUDY    28  25  86 CALM      30.21F
NEVADA         PTCLDY    21  19  93 CALM      30.26F
JOPLIN         MOCLDY    22  20  92 CALM      30.25F
WEST PLAINS    CLOUDY    30  24  78 N8        30.18F WCI  22

$$

IAZ060-094-KSZ022-034>040-054-083-096-NEZ052-066-093-281100-
...KANSAS...SOUTHEAST NEBRASKA AND IOWA...

CITY           SKY/WX    TMP DP  RH WIND       PRES   REMARKS
TOPEKA         CLEAR     15  11  83 CALM      30.24F
MANHATTAN      CLEAR     18  15  88 W3        30.23F
EMPORIA        CLEAR     15  12  88 SW5       30.23F WCI   8
CHANUTE        PTCLDY    21  18  88 CALM      30.25F
WICHITA        CLEAR     19  14  81 W3        30.23F
OMAHA          CLEAR     18  14  84 S8        30.18F WCI   8
LINCOLN        CLEAR     17  12  80 SW6       30.17F WCI   9
FALLS CITY     CLEAR     16  13  88 CALM      30.20F
LAMONI         CLEAR     16  13  88 SW6       30.20S WCI   7
DES MOINES     CLEAR     17  13  84 S7        30.19F WCI   8

$$




USA.gov is the U.S. government's official web portal to all federal, state and local government web resources and services.